カタログに戻る

THOR ABLESTAR DEB

運用中LEO
NORAD 254·DEBRIS·🇺🇸 United States

打ち上げ Jun 29, 1961 から Cape Canaveral Space Force Station

Loading…

次のパス (今後24時間)

TLE

最新Source: Space-Track

元期: Sep 13, 2026, 12:43 UTC

1 00254U 61015CF  26256.53054480  .00000984  00000-0  25575-3 0  9992
2 00254  66.7723  39.8057 0058088   2.9985 357.1462 14.53056338386517

AllMySatでTHOR ABLESTAR DEBをリアルタイム追跡

Download on the App Store